STARLINK-1309, 45414

Orbit data source: Space-Track

STARLINK-1309, 45414 is a payload satellite owned by SpaceX/Seattle (US) in LEO that was launched on Wed, 18 Mar 2020 UTC via an FALCON 9 launch vehicle from the Air Force Eastern Test Range (AFETR). Payloads include a variety of satellites, spacecraft, and rockets equipped with specific instruments for various scientific and technological missions. These include communications satellites like Starlink; space stations such as the ISS; scientific satellites like the Hubble; Earth observation satellites from companies like Planet Labs, Umbra, and HawkEye 360; GPS; miniature CubeSats for education and research; and military/defense satellites.

Loading next visibility...
STARLINK-1309 details
Identifier
45414, 2020-019BG
Orbit
LEO
Last TLE update9 hours ago
Origin
Flag of USSpaceX/Seattle (US)
ManufacturerSpaceX/Seattle
MissionOperational Commercial Communications
Bus & MotorSTARLINK, Unknown motor
Mass260 kg wet, ~248 kg dry
Launch date (UTC)
2020-03-18 (5 years ago)
Launch vehicle
FALCON 9
Launch site
Air Force Eastern Test Range (AFETR)
Object type
Payload
Rocket body
Debris
Shape & HBRBox + 1 Pan, 8.86 m
Radar Cross Section13.562 m², Large (>1 m²)

Expand to show TLE details & history

TLE from 9 hours ago
0 STARLINK-1309
1 45414U 20019BG  24361.17494417  .00029195  00000-0  19696-2 0  9992
2 45414  53.0542 305.1884 0001421 107.4477 252.6667 15.06421529263758
Epoch: 2024-12-26T04:11Z
Definitive object data (Epoch: 2024-12-26T04:11:55.176Z)
Latitude-0.00004°
Longitude147.05035°
Altitude548.318 km
Speed7.589 km/s
True Right ascension20h 20m 45s
True Declination0° 00' 00"
Sunlit
Object was in daylight at TLE epoch
Visualization TLE readout
Latitude-43.36563°
Longitude100.36391°
Altitude562.587 km
Speed7.579 km/s
Apparent Right ascension20h 57m 05s
Apparent Declination-58° 30' 16"
Sunlit
Object is in daylight
Visualization observer readout
Local Sidereal Time12:51:10
Azimuth137.069° SSE
Elevation-49.145°
Doppler factor1
Orbital elements
Apogee altitude548.4 km
Perigee altitude546.432 km
Semi-major axis6,925.553 km
Eccentricity0.0001421
Inclination53.0542°
RAAN305.1884°
Arg. of periapsis107.4477°
True anomaly252.65116°
Mean anomaly252.6667°
Eccentric anomaly252.65893°
Mean motion3.76584 °/min
BSTAR0.0019696
Orbital period95.6 mins
Loading maneuver chart data...
Loading historical data...
Loading historical data...
Loading historical data...
Loading historical data...
Loading historical data...
Loading historical data...
Loading historical data...

STARLINK-1309 Visibility forecast

Observer location: undefined°, undefined

Span
Click to sort rows by Start time (UTC) header in descending order
Start Az.
Max El. time (UTC)
Max El. Az.
Max El.
End time (UTC)
End Az.
4 mins2024-12-26 21:51:29.244Z164.425° S2024-12-26 21:53:29.244Z135.059° SSE15.227°2024-12-26 21:55:29.244Z101.017° ESE
6 mins2024-12-26 23:30:29.244Z241.931° WSW2024-12-26 23:33:29.244Z4.358° NNE41.662°2024-12-26 23:36:29.244Z45.01° ENE
4 mins2024-12-27 01:11:29.244Z310.859° NW2024-12-27 01:13:29.244Z347.322° N17.594°2024-12-27 01:15:29.244Z20.118° NNE
5 mins2024-12-27 04:32:29.244Z340.614° N2024-12-27 04:34:29.244Z18.253° NNE22.041°2024-12-27 04:37:29.244Z73.911° E
6 mins2024-12-27 06:12:29.244Z300.225° NW2024-12-27 06:14:29.244Z234.221° WSW43.174°2024-12-27 06:18:29.244Z139.539° SSE
|